Location: Vancouver
(49.2500°N, 123.1330°W)
Time: 07:12:21
(UTC-07:00)

ISS - All Passes

Search period start: 30 March 2015 00:00
Search period end: 09 April 2015 00:00
Orbit: 396 x 406 km, 51.6° (Epoch: 30 March)

Date Brightness Start Highest point End Pass type
(mag) Time Alt. Az. Time Alt. Az. Time Alt. Az.
30 Mar - 00:48:36 10° WSW 00:51:52 84° SSE 00:55:08 10° ENE night (unlit)
30 Mar - 02:25:13 10° W 02:28:25 53° N 02:31:37 10° ENE night (unlit)
30 Mar - 04:01:45 10° WNW 04:05:01 87° NNE 04:08:15 10° ESE visible
30 Mar - 05:38:30 10° W 05:41:08 23° SW 05:43:43 10° SSE visible
30 Mar - 22:21:22 10° SSE 22:22:36 12° SE 22:23:55 10° ESE night (unlit)
30 Mar - 23:55:17 10° SW 23:58:29 56° SSE 00:01:41 10° ENE night (unlit)
31 Mar - 01:31:42 10° W 01:34:56 57° N 01:38:08 10° ENE night (unlit)
31 Mar - 03:08:18 10° WNW 03:11:33 67° NNE 03:14:47 10° E night (unlit)
31 Mar - 04:44:49 10° W 04:47:51 36° SSW 04:50:52 10° SE visible
31 Mar - 23:02:07 10° SW 23:05:07 35° SSE 23:08:09 10° E night (unlit)
01 Apr - 00:38:09 10° W 00:41:25 68° NNW 00:44:40 10° ENE night (unlit)
01 Apr - 02:14:49 10° WNW 02:18:02 56° N 02:21:14 10° E night (unlit)
01 Apr - 03:51:17 10° WNW 03:54:29 58° SSW 03:57:40 10° SE night (unlit)
01 Apr - 05:28:55 10° WSW 05:30:22 12° SW 05:31:44 10° SSW visible
01 Apr - 22:09:13 10° SSW 22:11:48 22° SE 22:14:24 10° E night (unlit)
01 Apr - 23:44:39 10° WSW 23:47:54 90° SSW 23:51:11 10° ENE night (unlit)
02 Apr - 01:21:16 10° WNW 01:24:28 53° N 01:27:40 10° E night (unlit)
02 Apr - 02:57:46 10° WNW 03:01:02 87° SSW 03:04:17 10° ESE night (unlit)
02 Apr - 04:34:36 10° W 04:37:07 20° SW 04:39:35 10° SSE night (unlit)
02 Apr - 21:16:52 10° SSE 21:18:30 13° SE 21:20:13 10° ESE visible
02 Apr - 22:51:12 10° SW 22:54:25 62° SSE 22:57:39 10° ENE night (unlit)
03 Apr - 00:27:40 10° W 00:30:53 56° N 00:34:06 10° ENE night (unlit)
03 Apr - 02:04:15 10° WNW 02:07:31 71° NNE 02:10:45 10° E night (unlit)
03 Apr - 03:40:47 10° W 03:43:46 33° SSW 03:46:42 10° SSE night (unlit)
03 Apr - 21:57:54 10° SW 22:00:58 39° SSE 22:04:02 10° E visible
03 Apr - 23:34:02 10° W 23:37:17 65° NNW 23:40:32 10° ENE night (unlit)
04 Apr - 01:10:41 10° WNW 01:13:55 58° N 01:17:08 10° E night (unlit)
04 Apr - 02:47:09 10° WNW 02:50:20 53° SSW 02:53:29 10° SE night (unlit)
04 Apr - 04:25:13 10° WSW 04:26:10 11° SW 04:27:01 10° SSW night (unlit)
04 Apr - 21:04:51 10° SSW 21:07:33 24° SE 21:10:17 10° E visible
04 Apr - 22:40:25 10° WSW 22:43:41 85° NNW 22:46:58 10° ENE visible
05 Apr - 00:17:04 10° WNW 00:20:17 53° N 00:23:29 10° E night (unlit)
05 Apr - 01:53:33 10° WNW 01:56:48 81° SSW 02:00:03 10° ESE night (unlit)
05 Apr - 03:30:29 10° W 03:32:50 18° SW 03:35:09 10° S night (unlit)
05 Apr - 20:12:15 10° S 20:14:10 15° SE 20:16:08 10° ESE daylight
05 Apr - 21:46:52 10° WSW 21:50:07 68° SSE 21:53:22 10° ENE visible
05 Apr - 23:23:23 10° W 23:26:36 55° N 23:29:49 10° ENE visible
06 Apr - 00:59:57 10° WNW 01:03:12 74° NNE 01:06:27 10° ESE night (unlit)
06 Apr - 02:36:31 10° W 02:39:25 30° SW 02:42:18 10° SSE night (unlit)
06 Apr - 20:53:27 10° SW 20:56:34 43° SSE 20:59:41 10° ENE visible
06 Apr - 22:29:40 10° W 22:32:55 63° N 22:36:10 10° ENE visible
07 Apr - 00:06:18 10° WNW 00:09:32 60° N 00:12:46 10° E visible
07 Apr - 01:42:46 10° WNW 01:45:55 48° SSW 01:49:03 10° SE night (unlit)
07 Apr - 20:00:16 10° SSW 20:03:03 27° SE 20:05:53 10° E daylight
07 Apr - 21:35:58 10° WSW 21:39:14 80° NNW 21:42:30 10° ENE visible
07 Apr - 23:12:36 10° WNW 23:15:49 54° N 23:19:02 10° E visible
08 Apr - 00:49:04 10° WNW 00:52:20 75° SSW 00:55:34 10° ESE night (unlit)
08 Apr - 02:26:07 10° W 02:28:19 17° SW 02:30:27 10° S night (unlit)
08 Apr - 19:07:27 10° S 19:09:34 17° SE 19:11:46 10° E daylight
08 Apr - 20:42:18 10° WSW 20:45:34 73° SSE 20:48:50 10° ENE visible
08 Apr - 22:18:51 10° W 22:22:04 54° N 22:25:17 10° ENE visible
